Weather History for Coffeyville, KS

Change the Weather History Date:

Tuesday, January 1, 2013

  Actual Average Record
Temperature  
Mean Temperature 26 °F -  
Max Temperature 35 °F 43 °F 75 °F (2006)
Min Temperature 17 °F 24 °F -2 °F (2001)
Degree Days  
Heating Degree Days 38    
Moisture  
Dew Point 24 °F    
Average Humidity 86    
Maximum Humidity 93    
Minimum Humidity 75    
Precipitation  
Precipitation 0.00 in - - ()
Sea Level Pressure  
Sea Level Pressure 30.22 in    
Wind  
Wind Speed 10 mph (North)    
Max Wind Speed 17 mph    
Max Gust Speed 23 mph    
Visibility 6 miles    
Events Rain , Snow    
Averages and records for this station are not official NWS values.
T = Trace of Precipitation, MM = Missing Value Source: NWS Daily Summary

Daily Weather History Graph

Daily Weather History Graph

Search for Another Location

Airport:

Trip Planner

Search our weather history database for the weather conditions in past years. The results will help you decide how hot, cold, wet, or windy it might be!

Date:

Astronomy

Jan. 01, 2013 Rise Set
Actual Time 7:35 AM CST 5:16 PM CST
Civil Twilight 7:06 AM CST 5:45 PM CST
Nautical Twilight 6:34 AM CST 6:17 PM CST
Astronomical Twilight 6:02 AM CST 6:49 PM CST
Moon 9:41 PM CST (1/1) 9:54 AM CST (1/1)
Length of Visible Light 10h 38m
Length of Day
9h 40m
Waning Gibbous, 83% of the Moon is Illuminated
Jan 1
Waning Gibbous
Jan 4
Last Quarter
Jan 11
New
Jan 18
First Quarter
Jan 26
Full

Hourly Weather History & Observations

Time (CST) Temp. Windchill Dew Point Humidity Pressure Visibility Wind Dir Wind Speed Gust Speed Precip Events Conditions
12:45 AM 35.6 °F 28.6 °F 33.8 °F 93% 30.11 in 2.5 mi NNE 9.2 mph - 0.00 in Rain Light Rain
12:52 AM 35.1 °F 29.3 °F 33.1 °F 92% 30.13 in 2.5 mi NNE 6.9 mph - 0.00 in Rain Light Rain
1:00 AM 35.6 °F 28.0 °F 33.8 °F 93% 30.10 in 2.5 mi North 10.4 mph - 0.00 in Rain Light Rain
1:12 AM 35.6 °F 28.0 °F 33.8 °F 93% 30.11 in 3.0 mi NNE 10.4 mph - 0.00 in Rain Light Rain
1:29 AM 33.8 °F 25.3 °F 32.0 °F 93% 30.10 in 4.0 mi NNE 11.5 mph - 0.00 in   Overcast
1:52 AM 34.0 °F 24.6 °F 32.0 °F 92% 30.11 in 3.0 mi North 13.8 mph - 0.00 in   Overcast
2:52 AM 32.0 °F 22.1 °F 30.0 °F 92% 30.14 in 5.0 mi North 13.8 mph - N/A   Overcast
3:52 AM 30.0 °F 18.3 °F 27.0 °F 88% 30.10 in 6.0 mi North 17.3 mph 23.0 mph N/A   Overcast
4:09 AM 30.2 °F 20.8 °F 26.6 °F 86% 30.12 in 5.0 mi NNE 11.5 mph - N/A   Overcast
4:52 AM 30.0 °F 22.4 °F 26.1 °F 85% 30.17 in 6.0 mi NNE 8.1 mph - N/A   Overcast
5:43 AM 28.4 °F 21.2 °F 26.6 °F 93% 30.17 in 1.8 mi NNE 6.9 mph - 0.00 in Snow Light Snow
5:52 AM 28.9 °F 19.8 °F 26.1 °F 89% 30.19 in 1.5 mi NNE 10.4 mph - 0.00 in Snow Light Snow
5:56 AM 28.4 °F 19.7 °F 26.6 °F 93% 30.17 in 2.0 mi NNE 9.2 mph - 0.00 in Snow Light Snow
6:03 AM 28.4 °F 21.2 °F 26.6 °F 93% 30.18 in 3.0 mi North 6.9 mph - 0.00 in Snow Light Snow
6:14 AM 28.4 °F 19.1 °F 26.6 °F 93% 30.18 in 3.0 mi NNE 10.4 mph - 0.00 in   Overcast
6:25 AM 28.4 °F 18.5 °F 24.8 °F 86% 30.18 in 5.0 mi NNE 11.5 mph - 0.00 in   Overcast
6:43 AM 28.4 °F 19.1 °F 26.6 °F 93% 30.20 in 3.0 mi North 10.4 mph - 0.00 in   Overcast
6:52 AM 28.9 °F 20.4 °F 26.1 °F 89% 30.23 in 2.5 mi North 9.2 mph - 0.00 in Snow Light Snow
7:12 AM 28.4 °F 19.1 °F 24.8 °F 86% 30.21 in 4.0 mi NNE 10.4 mph - 0.00 in   Overcast
7:17 AM 28.4 °F 20.4 °F 24.8 °F 86% 30.22 in 4.0 mi North 8.1 mph - 0.00 in   Overcast
7:31 AM 28.4 °F 19.1 °F 26.6 °F 93% 30.23 in 4.0 mi North 10.4 mph - 0.00 in   Overcast
7:52 AM 28.0 °F 18.6 °F 25.0 °F 88% 30.23 in 5.0 mi North 10.4 mph - 0.00 in   Overcast
8:27 AM 28.4 °F 17.5 °F 24.8 °F 86% 30.20 in 5.0 mi North 13.8 mph - N/A   Overcast
9:52 AM 28.0 °F 18.1 °F 23.0 °F 81% 30.29 in 7.0 mi NNE 11.5 mph - N/A   Overcast
10:43 AM 28.4 °F 18.5 °F 23.0 °F 80% 30.27 in 7.0 mi North 11.5 mph - N/A   Overcast
10:52 AM 28.0 °F 17.5 °F 24.1 °F 85% 30.30 in 7.0 mi North 12.7 mph - N/A   Overcast
11:52 AM 26.1 °F 15.6 °F 21.9 °F 84% 30.29 in 8.0 mi North 11.5 mph - N/A   Overcast
12:11 PM 26.6 °F 16.2 °F 21.2 °F 80% 30.26 in 8.0 mi North 11.5 mph - N/A   Overcast
1:52 PM 26.1 °F 18.4 °F 21.0 °F 81% 30.29 in 8.0 mi NNW 6.9 mph - 0.00 in   Overcast
2:52 PM 27.0 °F 17.3 °F 21.0 °F 78% 30.28 in 10.0 mi North 10.4 mph - N/A   Overcast
3:52 PM 28.0 °F 20.8 °F 21.0 °F 75% 30.29 in 10.0 mi North 6.9 mph - N/A   Overcast
4:52 PM 26.1 °F 18.4 °F 19.0 °F 75% 30.30 in 10.0 mi North 6.9 mph - N/A   Scattered Clouds
5:52 PM 24.1 °F 17.0 °F 17.1 °F 75% 30.29 in 10.0 mi North 5.8 mph - N/A   Clear
6:52 PM 21.9 °F 14.5 °F 16.0 °F 78% 30.32 in 10.0 mi NNW 5.8 mph - N/A   Clear
7:52 PM 21.0 °F 16.2 °F 15.1 °F 78% 30.33 in 10.0 mi NNE 3.5 mph - N/A   Clear
8:52 PM 21.0 °F - 16.0 °F 81% 30.32 in 10.0 mi Calm Calm - N/A   Clear
9:52 PM 19.0 °F - 14.0 °F 81% 30.32 in 10.0 mi Calm Calm - N/A   Clear
10:52 PM 18.0 °F - 14.0 °F 84% 30.32 in 10.0 mi Calm Calm - N/A   Clear
11:52 PM 17.1 °F 8.7 °F 12.9 °F 84% 30.33 in 10.0 mi NW 5.8 mph - N/A   Clear